Mt. Pocono, PA

12:29 PM EDT on August 20, 2017 (GMT -0400)
Pocono Mountains Municipal

Weather History for KMPO - September, 2013

Change the Weather History Date:

Wednesday, September 11, 2013

  Actual Average Record
Temperature  
Mean Temperature 77 °F 61 °F  
Max Temperature 89 °F 70 °F 89 °F (1983)
Min Temperature 65 °F 52 °F 27 °F (1917)
Degree Days  
Heating Degree Days 0 5  
Month to date heating degree days 42 42  
Since 1 July heating degree days 106 105  
Cooling Degree Days 12 1  
Month to date cooling degree days 34 11  
Year to date cooling degree days 453 307  
Growing Degree Days 27 (Base 50)    
Moisture  
Dew Point 68 °F    
Average Humidity 73    
Maximum Humidity 93    
Minimum Humidity 53    
Precipitation  
Precipitation 0.48 in 0.19 in 3.25 in (1968)
Month to date precipitation 1.01 1.76  
Year to date precipitation 36.66 32.74  
Sea Level Pressure  
Sea Level Pressure 30.11 in    
Wind  
Wind Speed 6 mph (West)    
Max Wind Speed 25 mph    
Max Gust Speed 35 mph    
Visibility 6 miles    
Events Rain    
T = Trace of Precipitation, MM = Missing Value Source: NWS Daily Summary

Daily Weather History Graph

Daily Weather History Graph

Search for Another Location

Airport or City:

Trip Planner

Search our weather history database for the weather conditions in past years. The results will help you decide how hot, cold, wet, or windy it might be!

Date:

Astronomy

Sep. 11, 2013 Rise Set
Actual Time 6:38 AM EDT 7:17 PM EDT
Civil Twilight 6:10 AM EDT 7:44 PM EDT
Nautical Twilight 5:37 AM EDT 8:17 PM EDT
Astronomical Twilight 5:03 AM EDT 8:51 PM EDT
Moon 1:07 PM EDT (9/11) 11:07 PM EDT (9/11)
Length of Visible Light 13h 34m
Length of Day
12h 38m
Waxing Crescent, 38% of the Moon is Illuminated
Sep 11
Waxing Crescent
Sep 12
First Quarter
Sep 19
Full
Sep 26
Last Quarter
Oct 4
New

Hourly Weather History & Observations

Time (EDT) Temp. Heat Index Dew Point Humidity Pressure Visibility Wind Dir Wind Speed Gust Speed Precip Events Conditions
12:53 AM 73.9 °F - 69.1 °F 85% 30.14 in 5.0 mi West 9.2 mph - N/A   Haze
1:53 AM 72.0 °F - 69.1 °F 91% 30.14 in 4.0 mi West 9.2 mph - N/A   Clear
2:53 AM 72.0 °F - 69.1 °F 91% 30.14 in 5.0 mi West 8.1 mph - N/A   Clear
3:53 AM 72.0 °F - 68.0 °F 87% 30.12 in 4.0 mi NW 5.8 mph - N/A   Clear
4:53 AM 72.0 °F - 69.1 °F 91% 30.12 in 5.0 mi NW 6.9 mph - N/A   Clear
5:53 AM 72.0 °F - 69.1 °F 91% 30.14 in 4.0 mi NW 4.6 mph - N/A   Clear
6:53 AM 72.0 °F - 69.1 °F 91% 30.14 in 2.5 mi NW 4.6 mph - N/A   Clear
7:53 AM 73.9 °F - 70.0 °F 87% 30.15 in 3.0 mi NNW 5.8 mph - N/A   Clear
8:53 AM 75.9 °F - 71.1 °F 85% 30.16 in 4.0 mi West 4.6 mph - N/A   Haze
9:53 AM 79.0 °F - 72.0 °F 79% 30.16 in 5.0 mi WSW 6.9 mph - N/A   Haze
10:53 AM 82.9 °F 88.0 °F 72.0 °F 69% 30.16 in 6.0 mi Variable 4.6 mph - N/A   Haze
11:53 AM 86.0 °F 90.7 °F 70.0 °F 59% 30.14 in 7.0 mi Variable 5.8 mph - N/A   Clear
12:53 PM 88.0 °F 91.4 °F 68.0 °F 51% 30.12 in 10.0 mi South 6.9 mph 17.3 mph N/A   Scattered Clouds
1:53 PM 88.0 °F 92.9 °F 70.0 °F 55% 30.10 in 8.0 mi SSW 11.5 mph 19.6 mph N/A   Clear
2:53 PM 87.1 °F 92.8 °F 71.1 °F 59% 30.08 in 8.0 mi SSW 12.7 mph 21.9 mph N/A   Scattered Clouds
3:53 PM 84.9 °F 90.1 °F 71.1 °F 63% 30.06 in 7.0 mi SSW 10.4 mph - N/A   Mostly Cloudy
4:53 PM 82.9 °F 88.0 °F 72.0 °F 69% 30.04 in 6.0 mi SSW 8.1 mph - 0.00 in Rain Light Rain
5:53 PM 81.0 °F 85.2 °F 72.0 °F 74% 30.06 in 6.0 mi SW 8.1 mph - 0.01 in   Haze
6:53 PM 79.0 °F - 71.1 °F 77% 30.07 in 5.0 mi Calm Calm - N/A   Haze
7:53 PM 73.9 °F - 68.0 °F 82% 30.09 in 7.0 mi NNW 5.8 mph - N/A   Overcast
8:07 PM 69.8 °F - 66.2 °F 88% 30.16 in 1.5 mi WNW 23.0 mph 31.1 mph 0.07 in Rain Heavy Rain
8:10 PM 69.8 °F - 64.4 °F 83% 30.17 in 0.8 mi NW 20.7 mph 34.5 mph 0.13 in Rain Heavy Rain
8:24 PM 66.2 °F - 62.6 °F 88% 30.14 in 2.0 mi NW 13.8 mph 24.2 mph 0.29 in Rain Heavy Rain
8:36 PM 66.2 °F - 64.4 °F 94% 30.12 in 10.0 mi NNW 6.9 mph - 0.38 in Rain Light Rain
8:53 PM 68.0 °F - 63.0 °F 84% 30.09 in 10.0 mi North 4.6 mph - 0.46 in   Partly Cloudy
9:53 PM 66.9 °F - 64.0 °F 90% 30.07 in 9.0 mi Calm Calm - 0.01 in   Clear
10:53 PM 66.9 °F - 64.9 °F 93% 30.06 in 7.0 mi NW 4.6 mph - N/A   Clear
11:53 PM 66.9 °F - 64.0 °F 90% 30.04 in 8.0 mi Calm Calm - N/A   Clear